Theta_e
324 318 311 314 302 297 291 295 299 300 293 294 295 292 289 290 291 287 298 300 301 301 306 313 324 329 332 334 337 346 347 347 347 347 347 347 347 346 348 348 348 347 348 348 348 347 346 345 343
321 314 316 308 296 289 293 301 299 298 297 295 292 292 289 287 293 294 294 299 300 299 301 309 318 323 326 328 331 335 341 346 346 346 347 346 346 347 346 348 348 348 348 348 348 348 347 347 344
312 313 310 303 295 291 295 302 297 295 295 294 290 290 289 288 292 293 295 297 297 297 298 303 314 318 321 323 325 328 332 335 343 345 345 347 346 347 346 346 348 348 348 348 348 347 347 347 345
303 313 311 299 295 299 300 296 300 295 294 292 289 285 290 293 293 294 295 295 294 294 295 299 310 313 315 318 320 323 326 329 333 341 344 344 346 347 347 346 346 348 348 347 347 346 346 345 345
306 308 302 298 298 298 291 292 293 292 291 289 290 285 287 292 294 293 292 293 292 292 293 294 305 307 310 313 315 317 320 323 326 330 334 342 344 345 346 346 347 348 348 347 347 346 345 344 344
304 308 298 296 299 302 293 293 293 290 289 288 289 286 286 291 290 291 291 289 292 291 292 293 297 302 304 307 310 312 314 317 319 321 324 327 335 343 344 343 343 345 347 347 347 347 345 344 344
302 302 300 300 301 293 291 293 289 287 287 286 288 285 286 288 290 290 289 289 290 291 290 290 291 294 297 301 304 306 309 311 313 315 316 318 320 327 338 341 342 342 343 345 345 344 344 345 344
298 301 296 295 296 291 291 291 289 287 285 290 289 283 282 286 289 289 288 289 288 289 289 289 290 290 290 293 299 301 304 306 307 308 310 311 314 319 323 332 337 341 342 343 343 343 342 343 343
298 292 292 289 293 289 289 289 288 290 287 287 288 286 287 288 289 287 286 287 287 289 288 288 288 289 289 292 293 296 299 301 302 303 304 305 308 312 313 315 323 335 339 340 341 342 341 338 336
292 289 288 286 287 286 286 286 287 286 285 285 285 287 288 287 286 285 284 284 285 286 287 288 288 288 288 291 290 291 294 294 295 297 298 302 304 306 308 311 314 317 327 335 338 339 337 332 333
287 285 286 284 286 287 285 285 286 284 282 285 283 283 285 286 285 285 284 284 284 285 286 287 287 287 287 288 289 290 291 292 294 294 296 297 299 301 302 305 308 311 313 324 333 333 334 335 333
285 286 286 286 285 285 284 285 283 283 283 286 285 285 284 283 284 284 284 285 285 285 286 287 287 286 287 288 288 289 290 291 291 293 294 293 294 295 297 299 301 305 307 307 309 323 333 332 333
284 284 286 286 285 284 286 283 283 282 284 286 286 285 283 282 283 284 284 285 285 285 286 286 287 286 287 287 287 288 288 289 290 292 291 292 292 291 293 295 299 302 303 305 307 310 312 330 331
284 284 282 283 284 285 283 282 284 283 284 284 284 282 282 282 282 282 283 283 283 285 285 286 287 286 286 286 287 287 288 288 289 290 289 290 290 290 291 293 295 296 298 303 306 308 309 310 328
284 280 281 279 281 282 284 281 280 284 285 283 282 281 281 282 282 281 282 282 283 283 285 285 286 286 286 286 286 287 287 288 288 288 289 289 289 289 289 291 291 292 296 299 302 304 306 308 310
282 281 277 277 279 279 280 275 281 283 282 280 279 279 280 281 281 281 282 282 282 282 283 284 286 285 285 285 286 286 287 287 287 287 288 288 289 289 288 289 289 290 292 293 295 299 300 303 306
277 274 275 275 278 277 277 274 281 281 280 278 277 278 279 280 280 281 281 281 281 282 282 282 283 283 284 284 285 285 286 286 286 286 287 287 288 288 288 287 288 289 290 291 292 292 296 297 301
273 273 274 273 274 275 275 275 279 279 279 278 277 277 277 278 279 281 282 282 282 281 281 282 283 283 283 283 283 283 284 285 285 286 286 287 287 287 287 287 288 289 290 290 290 290 292 294 297
273 271 270 270 275 274 274 274 277 278 276 275 275 275 276 277 279 280 281 280 281 281 281 281 281 282 282 282 281 280 281 282 283 285 285 286 286 286 286 286 287 288 288 289 290 290 290 291 293
272 271 268 271 275 272 271 272 276 277 276 276 276 275 276 276 277 279 278 279 279 279 280 280 281 281 281 282 281 281 280 281 282 283 284 285 285 285 286 285 286 287 288 288 286 287 288 290 291
270 270 268 270 272 272 269 270 272 275 277 278 277 277 276 277 276 276 277 277 278 278 279 280 280 281 280 281 281 281 280 280 279 280 281 283 284 284 284 284 284 285 286 285 285 286 286 286 289
273 272 273 272 271 267 269 266 269 272 276 277 278 276 276 276 277 277 277 277 277 278 279 280 280 279 280 280 279 278 277 277 278 279 280 281 282 282 282 282 283 283 284 284 284 286 286 286 285
272 273 273 273 270 269 267 266 269 272 272 276 277 276 275 276 276 277 277 279 279 279 278 278 279 279 279 278 278 277 276 277 278 277 278 278 279 280 280 280 280 281 281 282 283 284 284 285 285
275 273 273 271 269 261 266 267 268 269 274 274 278 277 277 275 276 277 278 279 278 278 278 278 278 278 278 277 276 276 275 275 276 276 276 277 277 278 278 279 278 278 279 280 280 283 285 284 285
273 270 264 262 260 264 267 265 269 272 274 276 278 278 276 276 275 276 277 277 277 278 278 278 278 277 277 277 276 275 275 275 275 275 275 276 276 276 276 277 277 277 277 278 279 279 282 284 284
270 269 265 259 263 266 269 266 271 273 276 277 278 280 277 275 276 276 277 277 277 279 278 278 278 277 277 276 276 276 276 275 275 275 275 275 275 275 276 276 277 277 277 277 277 277 279 282 282
268 267 269 261 260 261 267 269 274 275 274 273 274 275 276 275 275 276 277 277 277 277 278 278 277 278 277 277 276 275 275 275 275 275 275 275 275 276 276 276 276 276 276 277 276 276 277 279 280
269 271 265 263 258 257 265 264 269 273 274 274 273 274 274 275 275 276 276 277 277 277 277 278 278 277 277 277 276 276 275 275 275 275 275 275 275 276 276 276 276 276 276 275 275 275 276 278 279
266 265 266 266 264 261 260 265 268 271 275 274 274 275 275 275 275 276 276 277 277 277 277 277 277 277 277 277 276 276 276 276 276 276 275 275 276 275 275 275 275 275 274 274 274 274 275 276 277
267 266 267 264 262 261 263 265 274 274 274 276 275 277 275 276 276 276 276 276 276 276 276 277 277 277 277 277 277 276 276 276 275 275 275 275 274 275 274 275 274 274 273 273 273 272 274 275 276
Wind_Speed
11 10 0 4 4 5 2 2 5 1 7 7 11 15 14 7 5 7 6 17 19 17 17 21 28 27 27 26 26 14 3 5 7 4 3 3 2 3 4 4 4 5 7 7 6 9 8 8 8
6 4 2 2 5 4 4 4 6 5 13 9 9 7 10 6 6 5 7 19 18 17 16 19 27 27 26 27 26 24 23 6 3 5 6 4 6 3 3 6 4 6 7 10 9 9 9 10 9
5 1 2 4 3 4 3 2 5 4 6 3 6 8 5 6 3 4 8 13 15 15 16 19 28 27 27 26 26 25 24 22 22 3 4 8 7 7 6 4 5 6 9 11 11 8 10 11 10
3 3 3 4 2 2 1 4 5 6 5 9 7 10 7 8 4 7 9 11 12 14 16 19 26 26 25 25 26 25 25 23 24 24 7 4 8 9 9 8 7 6 9 10 11 7 7 9 9
2 2 4 3 1 1 4 3 3 7 6 6 1 5 5 6 7 7 9 11 13 12 14 15 25 25 25 24 26 24 25 25 24 23 23 15 5 5 8 10 9 8 9 10 9 6 6 8 8
2 2 2 3 3 3 3 6 3 6 8 4 7 6 4 5 8 7 9 9 11 13 14 14 21 25 25 24 26 25 25 25 24 24 24 21 21 11 6 8 10 12 12 9 8 6 7 10 10
4 3 7 4 6 3 1 2 5 5 6 7 4 5 5 9 8 7 7 7 11 13 13 14 15 19 23 22 25 25 25 25 24 24 25 24 22 23 18 10 9 11 12 13 11 9 9 11 12
3 3 5 3 6 5 3 3 4 9 4 0 4 4 2 5 8 6 6 10 11 13 14 14 14 14 14 12 23 23 23 24 24 24 25 23 21 22 23 17 11 12 11 11 11 11 11 11 13
1 3 4 7 6 5 5 4 4 5 9 6 5 4 4 5 6 9 8 12 12 13 14 14 14 14 14 12 15 18 21 23 23 21 25 17 11 14 16 18 23 18 14 13 13 13 12 11 11
4 3 3 3 2 3 3 6 4 5 3 6 7 6 5 6 7 11 11 12 14 15 14 13 14 13 13 11 12 11 12 11 11 13 15 11 12 12 14 14 20 22 20 18 15 14 12 9 5
4 2 4 3 2 4 3 4 2 10 4 1 6 5 4 6 9 10 10 8 7 7 10 13 13 13 13 10 8 6 6 7 8 13 13 12 11 10 9 8 9 10 16 11 9 7 6 9 6
7 5 3 2 3 4 3 4 6 4 4 8 8 6 4 8 8 8 9 10 12 12 12 12 13 12 12 8 8 8 8 8 8 10 14 10 7 9 10 8 10 9 9 12 12 10 8 9 9
5 3 6 4 8 7 6 5 7 6 8 9 9 8 7 6 7 6 6 6 6 10 12 13 13 12 11 10 8 8 8 8 9 9 12 10 9 9 9 8 9 9 9 9 10 10 11 11 9
3 8 5 6 5 3 7 3 4 4 8 8 9 8 7 7 6 5 6 6 8 7 9 10 11 12 11 10 10 8 8 9 8 9 11 13 10 9 9 9 9 9 10 10 9 10 10 10 12
6 6 3 6 4 2 2 3 3 8 8 9 8 7 7 6 6 6 5 6 6 5 6 9 10 11 11 11 10 8 8 8 8 8 11 13 12 12 10 8 9 10 9 12 10 10 9 9 10
4 4 3 2 3 2 2 3 5 9 10 8 8 7 6 5 5 5 6 6 6 6 8 7 8 9 10 9 7 7 8 7 8 8 9 13 13 13 10 9 9 11 9 9 9 10 10 10 9
5 3 4 1 2 2 4 3 5 6 7 8 7 6 6 5 4 4 5 6 5 5 5 6 6 8 7 7 6 6 8 7 7 7 9 13 13 14 10 9 9 11 9 10 11 10 10 10 10
7 4 3 4 2 2 3 5 4 6 7 9 7 6 6 5 4 4 5 5 5 5 5 5 5 8 7 4 4 3 4 7 7 8 9 13 11 13 11 9 10 12 10 11 12 14 12 10 11
5 3 3 1 1 1 6 5 8 8 5 7 7 7 6 6 4 3 4 4 5 5 6 6 6 7 6 5 4 3 5 5 7 7 11 12 11 13 12 10 11 12 12 13 12 10 15 11 13
4 3 1 0 1 1 1 8 8 8 7 8 10 8 8 5 5 4 2 3 4 4 6 7 7 7 6 4 3 3 3 2 3 6 9 11 12 13 12 12 11 12 9 12 12 13 10 8 12
3 3 2 1 2 1 3 7 7 7 5 7 7 8 6 9 8 6 4 3 1 1 1 3 4 5 5 6 4 4 3 2 3 7 7 8 10 11 12 12 11 11 9 10 12 13 15 9 9
4 1 3 3 3 3 2 7 6 7 11 8 11 9 9 9 6 6 7 6 6 6 4 3 1 1 2 4 3 5 2 3 3 4 6 7 9 10 10 11 11 11 9 11 10 12 11 10 11
3 2 3 2 4 3 1 2 8 5 8 18 14 12 10 10 9 9 9 8 7 7 7 6 5 3 1 2 3 3 3 2 3 3 6 6 7 8 9 10 10 10 8 10 12 13 12 10 7
5 5 5 4 3 3 3 5 7 8 13 6 10 12 13 10 9 8 8 7 6 6 6 6 5 3 2 2 2 3 4 4 4 5 5 5 5 5 8 10 9 9 9 10 10 10 11 11 10
2 4 3 6 4 7 2 2 12 6 7 8 18 17 14 11 9 9 9 8 7 7 6 5 5 3 2 1 1 2 2 3 4 4 4 6 6 6 8 9 9 8 9 10 10 11 10 10 10
4 5 7 8 4 4 2 8 11 6 5 7 9 14 13 11 9 10 10 8 8 7 7 6 5 4 4 3 3 2 2 1 2 2 3 3 3 5 5 7 7 8 9 9 9 8 8 10 8
4 4 3 8 2 4 4 9 12 3 3 1 6 11 14 12 10 10 9 8 7 7 8 8 6 6 6 6 4 4 3 3 3 3 3 2 4 6 7 7 8 8 8 9 9 7 9 10 9
4 3 4 3 2 4 5 7 9 4 7 5 7 10 11 9 9 8 7 8 7 7 7 6 7 8 6 6 6 5 5 4 4 3 4 4 4 5 7 8 9 9 9 10 10 8 9 10 9
1 1 3 2 4 6 1 9 8 6 7 10 9 8 11 10 9 8 7 7 7 5 6 7 7 7 7 6 6 6 5 5 4 4 3 4 3 4 5 7 9 9 10 10 10 10 10 11 11
4 5 5 6 6 2 2 13 2 5 6 7 8 8 7 8 8 8 8 7 6 7 6 7 7 6 7 6 6 6 5 5 5 5 4 3 3 3 5 6 8 9 10 10 11 12 11 12 13
Wind_Direction
333 310 204 42 57 66 32 314 345 62 62 40 76 91 100 52 34 134 333 357 352 0 6 18 16 19 22 16 15 357 78 31 1 360 20 10 29 15 348 340 344 325 305 295 226 173 169 156 153
301 299 41 75 84 74 288 28 36 48 140 164 53 31 43 71 17 76 11 347 354 0 4 16 15 17 19 17 15 12 6 348 43 5 319 323 319 306 330 336 309 301 296 298 296 203 187 173 168
298 57 69 83 104 135 139 80 137 77 42 62 98 50 55 354 29 43 350 347 353 6 6 9 12 14 16 17 15 13 12 6 4 318 345 326 309 305 307 302 312 284 292 292 297 240 209 187 176
12 18 52 74 100 27 114 331 140 148 67 57 110 77 80 21 39 7 347 1 4 7 5 7 12 13 12 15 14 13 13 10 8 6 307 302 323 325 312 298 296 285 281 286 294 277 215 192 186
32 94 83 82 74 92 21 338 84 90 94 23 88 116 76 47 25 8 4 7 14 7 9 6 9 10 10 14 13 12 13 12 11 9 10 338 266 290 312 320 295 292 271 276 291 289 240 204 201
26 86 110 176 176 145 65 359 19 65 42 28 70 86 83 19 18 8 4 7 17 12 11 6 6 7 7 9 11 11 11 12 11 11 9 3 2 309 271 291 300 308 307 270 269 269 257 220 214
120 106 174 165 173 159 66 308 61 83 56 16 324 80 145 28 2 7 14 11 17 19 17 8 4 2 2 6 10 9 10 10 9 8 8 8 6 1 333 285 280 284 291 301 288 253 251 225 223
92 104 140 193 183 174 17 64 96 48 55 218 12 89 18 343 349 5 22 25 22 21 19 10 6 3 358 360 7 7 8 10 9 7 6 8 6 1 357 334 291 272 267 271 275 281 268 253 233
54 78 183 188 169 144 22 121 38 67 85 51 37 62 86 358 5 26 22 23 22 18 14 10 8 5 359 5 2 1 6 8 9 7 5 3 5 1 356 350 357 310 274 263 259 261 260 255 250
71 141 157 10 2 115 77 79 101 92 98 76 92 72 65 26 30 39 30 21 15 8 8 9 7 5 2 5 1 1 3 4 4 6 4 3 3 360 353 351 355 350 334 283 266 261 254 253 247
30 115 138 26 72 107 90 77 60 127 62 97 135 122 76 61 45 41 33 27 11 350 7 5 6 4 6 5 4 4 2 4 4 8 8 4 2 359 356 353 353 352 355 344 286 263 253 245 233
90 43 86 350 353 88 89 100 76 52 119 122 122 123 101 71 59 47 35 17 8 9 8 4 9 5 6 5 7 5 7 10 9 5 14 4 3 1 358 354 348 348 358 346 345 333 275 239 231
85 121 61 69 69 68 85 63 117 98 120 121 121 105 97 88 74 54 42 21 12 15 3 360 5 8 6 9 5 11 12 10 5 12 11 7 6 360 354 351 351 351 351 338 336 336 336 294 242
89 86 91 43 51 68 105 136 74 168 139 118 111 108 99 90 85 67 49 28 19 15 7 354 8 3 1 9 9 12 10 11 13 16 11 11 7 359 356 351 355 354 344 340 330 337 331 329 307
135 86 63 25 355 118 137 111 140 149 144 133 124 120 108 99 83 79 78 54 22 5 360 9 13 3 5 5 6 11 14 16 17 13 11 9 11 4 357 356 355 350 340 341 340 337 337 332 336
70 68 141 19 9 326 74 237 181 164 143 139 132 125 111 100 102 91 83 71 38 20 10 356 3 359 1 2 359 4 8 15 17 14 10 9 9 6 3 3 358 348 348 350 349 350 343 338 334
11 204 201 216 40 154 163 253 190 168 148 149 151 147 135 122 91 86 92 83 61 43 19 3 359 6 359 355 351 0 6 16 15 13 13 9 8 6 8 4 357 353 357 4 359 353 351 330 331
189 200 208 207 201 174 189 255 203 183 163 175 170 164 153 138 130 107 87 72 66 48 37 22 11 9 359 355 341 4 19 19 15 15 15 10 7 5 7 4 3 5 7 7 2 356 352 334 340
140 150 155 22 21 192 214 247 218 194 184 177 188 185 183 168 170 120 83 59 37 37 31 24 21 7 13 5 359 4 12 6 16 14 13 12 7 6 11 4 5 7 8 5 0 356 353 355 351
94 119 189 320 29 80 355 258 234 202 207 188 185 197 193 179 181 184 128 65 37 14 12 17 17 13 16 9 351 352 323 332 11 4 7 8 8 8 10 5 2 5 359 359 1 1 354 350 359
48 152 167 77 355 112 334 279 201 229 201 197 207 190 182 185 189 203 202 216 236 296 332 28 12 15 17 8 347 345 346 335 352 6 4 2 5 5 8 3 2 357 360 357 356 3 3 348 352
159 118 94 97 79 237 26 272 254 209 209 208 203 191 190 192 188 187 194 199 211 227 226 222 218 25 51 20 30 39 32 7 337 330 337 348 357 1 5 2 359 356 353 356 355 358 357 354 347
127 120 88 73 85 24 190 67 266 148 231 220 205 196 194 191 185 192 196 197 199 184 197 198 191 177 147 67 60 52 31 323 309 327 342 350 349 356 359 360 356 355 354 352 351 353 356 356 341
141 78 55 58 73 10 217 162 269 191 218 197 201 196 191 187 195 203 203 193 199 197 194 193 187 184 164 109 59 48 24 351 355 353 353 347 342 343 352 354 353 349 347 347 345 341 347 349 344
62 81 10 355 10 222 153 137 248 243 222 211 195 194 186 181 184 194 195 199 216 214 215 212 203 235 204 181 26 22 8 353 351 346 342 342 343 347 343 347 344 344 341 340 339 336 333 339 339
184 153 160 201 201 267 329 235 253 213 279 259 208 190 170 177 187 194 200 201 215 222 222 221 232 251 227 222 240 245 286 301 310 329 330 320 321 319 314 332 333 333 334 335 336 332 328 327 333
218 203 184 102 67 42 227 289 302 217 258 183 170 156 174 180 188 197 204 207 219 227 226 216 227 247 242 232 224 234 242 264 277 303 310 310 306 328 337 329 332 334 333 335 333 326 324 320 328
150 201 80 358 156 262 282 278 245 283 239 213 190 181 176 181 187 205 206 215 224 225 231 223 224 231 236 231 221 225 226 236 246 264 303 319 314 322 328 332 334 333 336 336 335 328 321 322 320
95 262 35 121 148 173 247 260 217 232 229 206 204 191 180 185 194 204 212 224 228 231 229 233 235 237 240 224 222 223 228 232 238 255 280 303 306 317 324 328 330 333 333 335 329 327 320 322 318
160 204 160 134 242 231 152 265 294 257 301 202 202 193 194 195 201 211 219 222 229 237 234 229 237 239 243 230 224 224 225 227 235 244 257 248 276 304 319 325 328 331 330 330 325 319 320 317 320